Powrót do katalogu

SHIYAN 23

SY-23

AktywnyNaukaSSO
NORAD 59728·PAYLOAD·🇨🇳 China

Wystrzelony May 11, 2024 z Jiuquan Satellite Launch Center

Loading…

Następne Przeloty (najbliższe 24 godziny)

TLE

ŚwieżeSource: Space-Track

Epoka: Sep 14, 2026, 18:12 UTC

1 59728U 24089A   26257.75864853  .00000350  00000-0  44863-4 0  9999
2 59728  97.7825 257.7293 0002402 257.3795 102.7152 14.87135778127157

Śledź SHIYAN 23 w czasie rzeczywistym z AllMySat

Download on the App Store